www.pogodaiklimat.ru

Погода и климат >> Архив погоды >> Индия >> Гуджарат >> Бхудж


ПОГОДА в Бхудже

  • Прогноз погоды в Бхудже
  • Монитор погоды в Бхудже

АРХИВ ПОГОДЫ в Бхудже

Время (UTC), дата Ветер
(напр.,м/с)
 
Видим.   Явления Облачность Т
(С)
Тd
(С)
f
(%)
Тe
(С)
Тes
(С)
Комфортность P
(гПа)
Po
(гПа)
Тmin
(С)
Tmax
(С)
R
(мм)
R24
(мм)
S
(см)
21 18.08 ЮЗ 1 4000 м ясно +26.6 +22.5 78 +35 +35 очень
душно
1005.5 996.4
00 19.08 ЮЗ 1 4000 м 3/3 600 м
[Sc]
+26.2 +22.3 79 +34 +34 очень
душно
1005.5 996.4
03 19.08 ЮЗ 1 4000 м 5/5 600 м
[Sc]
+27.6 +22.6 74 +36 +39 очень
душно
1007.3 998.2 +24.4
06 19.08 ЮЗ 1 4000 м 8/8 600 м
[Cu Sc]
+30.6 +19.3 51 +36 +41 очень
душно
1007.9 998.9
09 19.08 ЮЗ 2 4000 м 8/8 600 м
[Cu Sc]
+32.4 +17.8 42 +37 +40 очень
душно
1006.9 997.9
12 19.08 ЮЗ 2 4000 м 5/5 600 м
[Sc]
+33.0 +16.6 38 +36 +38 очень
душно
1005.3 996.4 +34.0
15 19.08 ЮЗ 2 4000 м 4/4 600 м
[Sc]
+29.0 +18.1 52 +34 +34 очень
душно
1006.1 997.0
18 19.08 ЮЗ 1 4000 м 4/3 600 м
[Sc Ac trans]
+26.6 +19.5 65 +32 +32 очень
душно
1007.8 998.6
21 19.08 штиль 0 4000 м 4/3 600 м
[Sc Ac trans]
+26.2 +21.1 74 +33 +33 очень
душно
1007.8 998.6
00 20.08 штиль 0 4000 м 6/3 600 м
[Sc Ac trans]
+25.8 +21.9 79 +33 +33 очень
душно
1008.3 999.1
03 20.08 ЮЗ 1 4000 м 3/3 600 м
[Sc]
+27.0 +20.0 66 +33 +37 очень
душно
1008.5 999.4 +24.4
06 20.08 ЮЗ 2 4000 м 5/5 600 м
[Sc]
+31.0 +18.7 48 +36 +46 очень
душно
1009.6 1000.6
09 20.08 ЮЗ 1 4000 м 6/3 600 м
[Sc Ac trans]
+34.0 +15.5 33 +36 +47 душно 1006.6 997.7
12 20.08 ЮЗ 2 4000 м 5/5 600 м
[Sc]
+34.2 +17.5 37 +38 +40 очень
душно
1004.6 995.7 +34.6
15 20.08 З 1 4000 м 1/1 600 м
[Sc]
+29.2 +19.8 57 +35 +35 очень
душно
1006.2 997.1
18 20.08 ЮЗ 2 4000 м 1/1 600 м
[Sc]
+27.6 +20.3 64 +34 +34 очень
душно
1007.8 998.7
21 20.08 штиль 0 4000 м ясно +26.8 +22.0 75 +35 +35 очень
душно
1006.9 997.8
00 21.08 ЮЗ 1 4000 м ясно +26.2 +22.0 78 +34 +34 очень
душно
1006.0 996.9
03 21.08 ЮЗ 2 4000 м 5/5 600 м
[Sc]
+27.4 +21.4 70 +35 +37 очень
душно
1006.7 997.6 +24.2
06 21.08 ЮЗ 2 4000 м 5/5 600 м
[Sc]
+31.0 +17.6 45 +35 +45 очень
душно
1007.3 998.3
09 21.08 З 3 4000 м 6/6 600 м
[Cu Sc]
+32.8 +17.2 39 +36 +43 очень
душно
1006.2 997.2
12 21.08 З 2 4000 м 4/4 600 м
[Cu Sc]
+31.8 +19.0 47 +37 +39 очень
душно
1003.9 994.9 +33.7
15 21.08 ЮЗ 2 4000 м 3/3 600 м
[Sc]
+28.8 +19.3 56 +34 +34 очень
душно
1005.5 996.4
18 21.08 ЮЗ 2 4000 м ясно +27.6 +20.6 66 +34 +34 очень
душно
1006.6 997.5
21 21.08 ЮЗ 2 4000 м ясно +26.8 +21.4 72 +34 +34 очень
душно
1005.9 996.8
00 22.08 ЮЗ 2 4000 м ясно +26.2 +22.0 78 +34 +34 очень
душно
1005.8 996.7
03 22.08 З 1 4000 м 4/4 540 м
[Frnb Ci fib]
+27.6 +21.0 67 +35 +38 очень
душно
1006.3 997.2 +24.0
06 22.08 З 2 4000 м 6/5 600 м
[Cu Sc Ac trans]
+31.2 +17.8 45 +35 +44 очень
душно
1006.6 997.6
09 22.08 З 2 4000 м 8/8 600 м
[Cu Sc]
+32.6 +16.9 39 +36 +40 очень
душно
1005.4 996.4
12 22.08 З 2 4000 м 6/6 600 м
[Cu Sc]
+32.0 +16.1 38 +35 +36 очень
душно
1003.8 994.8 +34.8
15 22.08 З 2 4000 м 3/3 600 м
[Sc]
+29.2 +18.3 52 +34 +34 очень
душно
1004.4 995.4
18 22.08 З 2 4000 м 3/3 600 м
[Sc]
+27.4 +20.1 64 +34 +34 очень
душно
1005.5 996.4
21 22.08 З 1 4000 м ясно +26.6 +21.5 74 +34 +34 очень
душно
1005.7 996.6
00 23.08 З 1 4000 м ясно +26.2 +21.7 76 +34 +34 очень
душно
1005.3 996.2
03 23.08 штиль 0 4000 м 1/1 600 м
[Sc]
+27.4 +20.8 67 +34 +40 очень
душно
1006.5 997.4 +24.0
06 23.08 З 1 4000 м 5/5 600 м
[Sc]
+31.2 +16.6 42 +35 +46 очень
душно
1007.0 998.0
09 23.08 Ю 2 4000 м 8/8 600 м
[Sc diur, vesp]
+34.0 +15.1 32 +36 +39 душно 1004.9 996.0
12 23.08 З 2 4000 м 6/6 600 м
[Sc diur, vesp]
+34.0 +15.1 32 +36 +37 душно 1003.7 994.8 +35.5
15 23.08 З 1 4000 м ясно +29.6 +18.4 51 +34 +34 очень
душно
1004.2 995.2
18 23.08 З 1 4000 м ясно +27.6 +20.3 64 +34 +34 очень
душно
1006.2 997.1
21 23.08 штиль 0 4000 м ясно +26.6 +19.9 67 +33 +33 очень
душно
1005.6 996.5
00 24.08 штиль 0 4000 м ясно +26.2 +22.0 78 +34 +34 очень
душно
1004.7 995.6
03 24.08 ЮЗ 1 4000 м ясно +27.0 +19.6 64 +33 +38 очень
душно
1006.1 997.0 +24.2
06 24.08 З 2 4000 м 6/6 600 м
[Sc diur, vesp]
+31.2 +16.6 42 +35 +43 очень
душно
1006.6 997.6
09 24.08 З 1 4000 м 6/6 600 м
[Sc diur, vesp]
+34.8 +14.0 29 +36 +44 душно 1004.5 995.6
12 24.08 З 2 4000 м 6/6 600 м
[Sc diur, vesp]
+33.2 +15.7 35 +36 +37 очень
душно
1002.6 993.7 +35.4
15 24.08 З 1 4000 м 3/3 600 м
[Sc]
+29.8 +18.3 50 +35 +35 очень
душно
1004.0 995.0
18 24.08 штиль 0 4000 м ясно +27.6 +19.6 62 +33 +33 очень
душно
1005.2 996.1
21 24.08 штиль 0 4000 м ясно +26.6 +20.5 69 +33 +33 очень
душно
1004.9 995.8
00 25.08 штиль 0 4000 м ясно +26.2 +21.7 76 +34 +34 очень
душно
1004.4 995.3
03 25.08 З 1 4000 м 3/3 600 м
[Sc]
+27.4 +20.8 67 +34 +38 очень
душно
1005.4 996.3 +24.8
06 25.08 З 1 4000 м 5/5 600 м
[Sc]
+31.2 +17.4 44 +35 +46 очень
душно
1005.7 996.7
09 25.08 З 1 4000 м 6/6 600 м
[Sc diur, vesp Ci fib]
+35.4 +13.5 27 +36 +44 очень
жарко
1003.1 994.3
12 25.08 З 2 4000 м 5/5 600 м
[Sc Ac trans Ci fib]
+34.6 +14.2 29 +36 +37 душно 1002.1 993.2 +35.7
15 25.08 З 2 4000 м 3/0
[Ci fib]
+29.8 +17.6 48 +34 +34 очень
душно
1003.0 994.0
18 25.08 З 1 4000 м ясно +28.0 +20.1 62 +34 +34 очень
душно
1004.5 995.4

 

Местоположение метеостанции Бхудж (Гуджарат, Индия): широта 23.25 долгота 69.67 высота над уровнем моря 80 м.

В архиве по умолчанию представлена погода в Бхудже за последнюю неделю. Архивные данные за месяц целиком и за предыдущие месяцы, начиная с января 2011 года, Вы можете получить, выбрав интересующий диапазон дат из раскрывающегося списка и нажав кнопку "Ввод!".


*Определитесь, кто Вы:
робот инопланетянин человек

Внимание! Время в таблицах - всемирное. Для получения местного времени необходимо прибавить поправку, которая равна 5.5 ч.

Смотрите также архив погоды в соседних городах и на ближайших метеорологических станциях:

Погода в Кандле (Гуджарат, Индия) (47 км)
Погода в Нью-Кандле (Гуджарат, Индия) (63 км)
Погода в Мандви (Гуджарат, Индия) (63 км)
Погода в Налии (Гуджарат, Индия) (84 км)
Погода в Охе (Гуджарат, Индия) (103 км)
Погода в Дварке (Гуджарат, Индия) (115 км)
Погода в Раджкоте (Гуджарат, Индия) (155 км)
Погода в Митхи (Пакистан) (166 км)
Погода в Бадине (Пакистан) (172 км)
Погода в Порбандаре (Гуджарат, Индия) (178 км)

Пояснения к столбцам:

Ветер - указаны скорость ветра в м/с - средняя за 10 мин, порывы в срок и между сроками (в фигурных скобках) и направление, откуда дует ветер: С - северный, СВ - северо-восточный, В - восточный, ЮВ - юго-восточный, Ю - южный, ЮЗ - юго-западный, З - западный, СЗ - северо-западный.
Видимость - горизонтальная дальность видимости в метрах или километрах. При видимости от 1 до 10 км при отсутствии осадков обычно наблюдается дымка, при ухудшении видимости до 1 км и менее - туман. В сухую погоду видимость может ухудшаться дымом, пылью или мглою.
Явления - указаны атмосферные явления, наблюдавшиеся в срок или в последний час перед сроком; фигурными скобками обозначены явления, наблюдавшиеся между сроками (за 1-3 часа до срока); квадратными скобками обозначены град или гололедные отложения с указанием их диаметра в мм.
Облачность - указаны через наклонную черту общая и нижняя облачность в баллах и высота нижней границы облаков в метрах; квадратными скобками обозначены формы облаков: Ci - перистые, Cs - перисто-слоистые, Cc - перисто-кучевые, Ac - высококучевые, As - высокослоистые, Sc - слоисто-кучевые, Ns - слоисто-дождевые, Cu - кучевые, Cb - кучево-дождевые. Подробнее классификацию облаков см. в Атласе облаков (PDF).
T - Температура воздуха - температура, измеренная на высоте 2 м над землей.
Td - Температура точки росы - температура, при понижении до которой содержащийся в воздухе водяной пар достигнет насыщения.
f - Относительная влажность воздуха - влажноcть воздуха, измеренная на высоте 2 м над землей.
Te - Эффективная температура - температура, которую ощущает одетый по сезону человек в тени. Характеристика душности погоды. При расчете учитывается влияние влажности воздуха и скорости ветра на теплоощущения человека.
Tes - Эффективная температура на солнце - температура, которую ощущает человек, с поправкой на солнечный нагрев. Характеристика знойности погоды. Зависит от высоты солнца над горизонтом, облачности и скорости ветра. Ночью, в пасмурную погоду, а также при ветре 12 м/с и более поправка равна нулю.
P - Атмосферное давление - приведенное к уровню моря атмосферное давление.
Po - Атмосферное давление - измеренное на уровне метеостанции атмосферное давление.
Tmin - Минимальная температура - минимум температуры воздуха на высоте 2 м над землей.
Tmax - Максимальная температура - максимум температуры воздуха на высоте 2 м над землей.
R - Количество осадков - Количество выпавших осадков за период времени, мм. При наведении курсора мыши на число - период времени, за который выпало указанное количество осадков.
R24 - Количество осадков - Количество выпавших осадков за 24 часа, мм.
S - Снежный покров - Высота снежного покрова, см. При наведении курсора мыши на число - состояние снежного покрова и степень покрытия местности в баллах.